Location: Sungai Jaoh
(2.9167°N, 113.9167°E)
Time: 11:17:22
(UTC+00:00)

Envisat - Pass Details

Date: 05 October 2021
Orbit: 764 x 766 km, 98.2° (Epoch: 20 October)

Event Time Altitude Azimuth Distance (km) Brightness Sun altitude
Rises 21:18:02 0° 7° (N) 3,213 6.3 -13.8°
Reaches altitude 10° 21:20:20 10° 5° (N) 2,290 5.5 -13.3°
Maximum altitude 21:25:21 70° 282° (WNW) 811 2.9 -12.0°
Drops below altitude 10° 21:30:24 10° 199° (SSW) 2,298 5.3 -10.8°
Sets 21:32:43 0° 196° (SSW) 3,225 6.1 -10.2°
